• In Uzbekistan
  • List of Countries
  • For 7 days
  • Water Temperature
  • Satellite Maps
  • Weather Map
  • Weather Widgets
  • user-avatar
    Login

    Hourly Weather Rawson

    Today, 5 December, Monday

    Time Temperature Precipitation Wind Pressure Humidity
    00:00 +17°C° 0.6 mm 5 mps 749 mmHg 71%
    01:00 +18°C° 0.6 mm 4 mps 749 mmHg 75%
    02:00 +18°C° 0.6 mm 3 mps 748 mmHg 79%
    03:00 +17°C° 3.5 mm 4 mps 748 mmHg 79%
    04:00 +16°C° 3.5 mm 5 mps 748 mmHg 80%
    05:00 +15°C° 3.5 mm 6 mps 748 mmHg 80%
    06:00 +15°C° 1.6 mm 7 mps 748 mmHg 79%
    07:00 +15°C° 1.6 mm 9 mps 748 mmHg 77%
    08:00 +14°C° 1.6 mm 10 mps 748 mmHg 75%
    09:00 +14°C° 0.5 mm 11 mps 748 mmHg 72%
    10:00 +14°C° 0.5 mm 13 mps 749 mmHg 69%
    11:00 +15°C° 0.5 mm 14 mps 749 mmHg 66%
    12:00 +15°C° 0.2 mm 14 mps 749 mmHg 62%
    13:00 +17°C° 0.2 mm 14 mps 750 mmHg 58%
    14:00 +17°C° 0.2 mm 15 mps 750 mmHg 53%
    15:00 +17°C° 0 mm 14 mps 751 mmHg 50%
    16:00 +17°C° 0 mm 13 mps 752 mmHg 48%
    17:00 +17°C° 0 mm 13 mps 752 mmHg 45%
    18:00 +16°C° 0 mm 11 mps 753 mmHg 47%
    19:00 +16°C° 0 mm 10 mps 753 mmHg 48%
    20:00 +15°C° 0 mm 9 mps 754 mmHg 49%
    21:00 +13°C° 0 mm 8 mps 754 mmHg 52%
    22:00 +14°C° 0 mm 7 mps 754 mmHg 55%
    23:00 +13°C° 0 mm 6 mps 754 mmHg 57%

    Tomorrow, 6 December, Tuesday

    Time Temperature Precipitation Wind Pressure Humidity
    00:00 +14°C° 0 mm 6 mps 754 mmHg 57%
    01:00 +14°C° 0 mm 5 mps 754 mmHg 57%
    02:00 +14°C° 0 mm 4 mps 754 mmHg 58%
    03:00 +14°C° 0 mm 4 mps 754 mmHg 59%
    04:00 +14°C° 0 mm 4 mps 755 mmHg 61%
    05:00 +14°C° 0 mm 4 mps 755 mmHg 63%
    06:00 +15°C° 0 mm 5 mps 755 mmHg 58%
    07:00 +17°C° 0 mm 6 mps 755 mmHg 53%
    08:00 +20°C° 0 mm 7 mps 756 mmHg 48%
    09:00 +21°C° 0 mm 6 mps 756 mmHg 45%
    10:00 +22°C° 0 mm 6 mps 756 mmHg 43%
    11:00 +23°C° 0 mm 5 mps 756 mmHg 40%
    12:00 +23°C° 0 mm 5 mps 756 mmHg 40%
    13:00 +23°C° 0 mm 5 mps 756 mmHg 41%
    14:00 +23°C° 0 mm 5 mps 755 mmHg 41%
    15:00 +22°C° 0 mm 5 mps 755 mmHg 43%
    16:00 +22°C° 0 mm 5 mps 755 mmHg 45%
    17:00 +21°C° 0 mm 5 mps 755 mmHg 46%
    18:00 +20°C° 0 mm 4 mps 755 mmHg 52%
    19:00 +19°C° 0 mm 4 mps 755 mmHg 57%
    20:00 +17°C° 0 mm 4 mps 755 mmHg 62%
    21:00 +17°C° 0 mm 4 mps 756 mmHg 64%
    22:00 +17°C° 0 mm 3 mps 756 mmHg 67%
    23:00 +16°C° 0 mm 3 mps 756 mmHg 69%

    Day after tomorrow, 7 December, Wednesday

    Time Temperature Precipitation Wind Pressure Humidity
    00:00 +16°C° 0 mm 3 mps 756 mmHg 70%
    01:00 +16°C° 0 mm 3 mps 756 mmHg 70%
    02:00 +16°C° 0 mm 3 mps 755 mmHg 71%
    03:00 +15°C° 0 mm 6 mps 756 mmHg 70%
    04:00 +15°C° 0 mm 9 mps 756 mmHg 68%
    05:00 +14°C° 0 mm 11 mps 757 mmHg 67%
    06:00 +14°C° 0 mm 11 mps 758 mmHg 63%
    07:00 +14°C° 0 mm 11 mps 759 mmHg 60%
    08:00 +16°C° 0 mm 11 mps 759 mmHg 56%
    09:00 +17°C° 0 mm 11 mps 760 mmHg 49%
    10:00 +18°C° 0 mm 10 mps 760 mmHg 41%
    11:00 +19°C° 0 mm 10 mps 761 mmHg 33%
    12:00 +19°C° 0 mm 9 mps 761 mmHg 30%
    13:00 +21°C° 0 mm 9 mps 761 mmHg 28%
    14:00 +22°C° 0 mm 9 mps 760 mmHg 25%
    15:00 +21°C° 0 mm 8 mps 760 mmHg 27%
    16:00 +20°C° 0 mm 8 mps 760 mmHg 29%
    17:00 +20°C° 0 mm 8 mps 760 mmHg 31%
    18:00 +17°C° 0 mm 7 mps 760 mmHg 36%
    19:00 +16°C° 0 mm 5 mps 760 mmHg 41%
    20:00 +14°C° 0 mm 4 mps 760 mmHg 47%
    21:00 +14°C° 0 mm 3 mps 761 mmHg 48%
    22:00 +14°C° 0 mm 3 mps 761 mmHg 50%
    23:00 +14°C° 0 mm 2 mps 761 mmHg 52%

    8 December, Thursday

    Time Temperature Precipitation Wind Pressure Humidity
    00:00 +13°C° 0 mm 4 mps 760 mmHg 53%
    01:00 +13°C° 0 mm 5 mps 760 mmHg 55%
    02:00 +13°C° 0 mm 6 mps 759 mmHg 56%
    03:00 +13°C° 0 mm 6 mps 759 mmHg 58%
    04:00 +13°C° 0 mm 6 mps 758 mmHg 59%
    05:00 +13°C° 0 mm 6 mps 758 mmHg 60%
    06:00 +16°C° 0 mm 6 mps 758 mmHg 52%
    07:00 +20°C° 0 mm 6 mps 757 mmHg 44%
    08:00 +23°C° 0 mm 7 mps 757 mmHg 36%
    09:00 +24°C° 0 mm 7 mps 757 mmHg 32%
    10:00 +27°C° 0 mm 7 mps 756 mmHg 28%
    11:00 +28°C° 0 mm 7 mps 756 mmHg 24%
    12:00 +29°C° 0 mm 7 mps 755 mmHg 21%
    13:00 +30°C° 0 mm 6 mps 754 mmHg 17%
    14:00 +32°C° 0 mm 6 mps 753 mmHg 14%
    15:00 +32°C° 0 mm 6 mps 752 mmHg 13%
    16:00 +33°C° 0 mm 6 mps 752 mmHg 12%
    17:00 +33°C° 0 mm 6 mps 751 mmHg 11%
    18:00 +30°C° 0 mm 6 mps 751 mmHg 14%
    19:00 +28°C° 0 mm 5 mps 751 mmHg 18%
    20:00 +26°C° 0 mm 4 mps 750 mmHg 21%
    21:00 +26°C° 0 mm 5 mps 751 mmHg 24%
    22:00 +24°C° 0 mm 6 mps 751 mmHg 26%
    23:00 +23°C° 0 mm 7 mps 751 mmHg 29%

    9 December, Friday

    Time Temperature Precipitation Wind Pressure Humidity
    00:00 +22°C° 0 mm 8 mps 751 mmHg 32%
    01:00 +21°C° 0 mm 9 mps 751 mmHg 35%
    02:00 +19°C° 0 mm 10 mps 751 mmHg 38%
    03:00 +18°C° 0 mm 10 mps 751 mmHg 39%
    04:00 +17°C° 0 mm 9 mps 751 mmHg 40%
    05:00 +16°C° 0 mm 9 mps 752 mmHg 41%
    06:00 +17°C° 0 mm 9 mps 752 mmHg 39%
    07:00 +18°C° 0 mm 9 mps 752 mmHg 36%
    08:00 +19°C° 0 mm 9 mps 752 mmHg 33%
    09:00 +21°C° 0 mm 9 mps 752 mmHg 30%
    10:00 +22°C° 0 mm 8 mps 752 mmHg 27%
    11:00 +23°C° 0 mm 7 mps 752 mmHg 25%
    12:00 +24°C° 0 mm 7 mps 752 mmHg 22%
    13:00 +26°C° 0 mm 7 mps 751 mmHg 20%
    14:00 +27°C° 0 mm 7 mps 751 mmHg 17%
    15:00 +27°C° 0 mm 7 mps 750 mmHg 17%
    16:00 +27°C° 0 mm 8 mps 750 mmHg 18%
    17:00 +27°C° 0 mm 8 mps 749 mmHg 18%
    18:00 +26°C° 0 mm 8 mps 749 mmHg 21%
    19:00 +24°C° 0 mm 8 mps 749 mmHg 25%
    20:00 +23°C° 0 mm 8 mps 749 mmHg 28%
    21:00 +21°C° 0.1 mm 8 mps 749 mmHg 35%
    22:00 +20°C° 0.1 mm 8 mps 748 mmHg 42%
    23:00 +17°C° 0.1 mm 8 mps 748 mmHg 49%

    10 December, Saturday

    Time Temperature Precipitation Wind Pressure Humidity
    00:00 +16°C° 1.8 mm 7 mps 747 mmHg 57%
    01:00 +15°C° 1.8 mm 6 mps 746 mmHg 65%
    02:00 +14°C° 1.8 mm 5 mps 745 mmHg 73%
    03:00 +14°C° 2.2 mm 5 mps 745 mmHg 75%
    04:00 +13°C° 2.2 mm 6 mps 744 mmHg 77%
    05:00 +12°C° 2.2 mm 7 mps 744 mmHg 79%
    06:00 +13°C° 0.2 mm 9 mps 744 mmHg 69%
    07:00 +14°C° 0.2 mm 11 mps 744 mmHg 59%
    08:00 +17°C° 0.2 mm 13 mps 744 mmHg 49%
    09:00 +17°C° 0 mm 13 mps 745 mmHg 44%
    10:00 +18°C° 0 mm 13 mps 745 mmHg 39%
    11:00 +19°C° 0 mm 13 mps 745 mmHg 34%
    12:00 +18°C° 0 mm 13 mps 746 mmHg 34%
    13:00 +18°C° 0 mm 14 mps 746 mmHg 34%
    14:00 +18°C° 0 mm 14 mps 747 mmHg 34%
    15:00 +18°C° 0 mm 13 mps 747 mmHg 35%
    16:00 +17°C° 0 mm 11 mps 747 mmHg 36%
    17:00 +17°C° 0 mm 10 mps 748 mmHg 38%
    18:00 +16°C° 0 mm 8 mps 749 mmHg 41%
    19:00 +16°C° 0 mm 7 mps 749 mmHg 44%
    20:00 +15°C° 0 mm 6 mps 750 mmHg 47%
    21:00 +15°C° 0 mm 5 mps 750 mmHg 47%
    22:00 +15°C° 0 mm 4 mps 750 mmHg 48%
    23:00 +15°C° 0 mm 4 mps 751 mmHg 48%
    Show more